When you browse on this site, cookies collect data to enhance your experience and personalize the content and advertising you see.
Visit our Privacy Policy to learn more. By continuing to use the site, you agree to this use of cookies and data.
  • In Sweden
  • List of Countries
  • For 7 days
  • Water Temperature
  • Satellite Maps
  • Weather Map
  • Weather Widgets
  • user-avatar
    Login

    Hourly Weather Usvyaty

    Today, 23 March, Saturday

    Time Temperature Precipitation Wind Pressure Humidity
    00:00 -2°C° 0 mm 5 mps 753 mmHg 78%
    01:00 -2°C° 0 mm 4 mps 753 mmHg 80%
    02:00 -1°C° 0 mm 3 mps 753 mmHg 85%
    03:00 -1°C° 0 mm 3 mps 753 mmHg 84%
    04:00 -2°C° 0 mm 4 mps 754 mmHg 84%
    05:00 -2°C° 0 mm 4 mps 754 mmHg 84%
    06:00 -2°C° 0 mm 4 mps 754 mmHg 83%
    07:00 -1°C° 0 mm 3 mps 754 mmHg 82%
    08:00 -1°C° 0 mm 3 mps 755 mmHg 81%
    09:00 0°C° 0 mm 3 mps 755 mmHg 78%
    10:00 +2°C° 0 mm 2 mps 755 mmHg 75%
    11:00 +4°C° 0 mm 1 mps 754 mmHg 72%
    12:00 +5°C° 0 mm 1 mps 754 mmHg 68%
    13:00 +6°C° 0 mm 1 mps 754 mmHg 64%
    14:00 +7°C° 0 mm 1 mps 754 mmHg 60%
    15:00 +7°C° 0 mm 1 mps 753 mmHg 62%
    16:00 +6°C° 0 mm 1 mps 753 mmHg 64%
    17:00 +5°C° 0 mm 2 mps 752 mmHg 65%
    18:00 +4°C° 0 mm 2 mps 752 mmHg 69%
    19:00 +3°C° 0 mm 2 mps 751 mmHg 73%
    20:00 +1°C° 0 mm 3 mps 751 mmHg 76%
    21:00 +2°C° 0.1 mm 3 mps 750 mmHg 73%
    22:00 +2°C° 0.1 mm 3 mps 750 mmHg 70%
    23:00 +2°C° 0.1 mm 3 mps 749 mmHg 67%

    Tomorrow, 24 March, Sunday

    Time Temperature Precipitation Wind Pressure Humidity
    00:00 +2°C° 0.8 mm 3 mps 748 mmHg 68%
    01:00 +2°C° 0.8 mm 3 mps 747 mmHg 70%
    02:00 +2°C° 0.8 mm 3 mps 747 mmHg 72%
    03:00 +2°C° 0.3 mm 3 mps 746 mmHg 77%
    04:00 +2°C° 0.3 mm 3 mps 746 mmHg 83%
    05:00 +2°C° 0.3 mm 3 mps 745 mmHg 89%
    06:00 +2°C° 0 mm 3 mps 745 mmHg 86%
    07:00 +3°C° 0 mm 4 mps 745 mmHg 83%
    08:00 +3°C° 0 mm 4 mps 745 mmHg 80%
    09:00 +3°C° 0 mm 5 mps 745 mmHg 73%
    10:00 +3°C° 0 mm 5 mps 745 mmHg 66%
    11:00 +5°C° 0 mm 5 mps 745 mmHg 59%
    12:00 +5°C° 0 mm 5 mps 745 mmHg 55%
    13:00 +6°C° 0 mm 5 mps 745 mmHg 51%
    14:00 +6°C° 0 mm 5 mps 745 mmHg 47%
    15:00 +5°C° 0 mm 5 mps 745 mmHg 49%
    16:00 +5°C° 0 mm 4 mps 745 mmHg 52%
    17:00 +4°C° 0 mm 3 mps 745 mmHg 55%
    18:00 +3°C° 0 mm 3 mps 745 mmHg 58%
    19:00 +2°C° 0 mm 3 mps 745 mmHg 61%
    20:00 +1°C° 0 mm 3 mps 746 mmHg 64%
    21:00 +1°C° 0 mm 2 mps 746 mmHg 66%
    22:00 -1°C° 0 mm 2 mps 745 mmHg 68%
    23:00 -1°C° 0 mm 2 mps 745 mmHg 71%

    Day after tomorrow, 25 March, Monday

    Time Temperature Precipitation Wind Pressure Humidity
    00:00 -2°C° 0 mm 2 mps 745 mmHg 72%
    01:00 -2°C° 0 mm 2 mps 745 mmHg 73%
    02:00 -2°C° 0 mm 2 mps 745 mmHg 75%
    03:00 -2°C° 0 mm 2 mps 745 mmHg 73%
    04:00 -2°C° 0 mm 2 mps 744 mmHg 72%
    05:00 -2°C° 0 mm 2 mps 744 mmHg 70%
    06:00 -1°C° 0 mm 2 mps 744 mmHg 67%
    07:00 0°C° 0 mm 3 mps 744 mmHg 64%
    08:00 +1°C° 0 mm 3 mps 744 mmHg 62%
    09:00 +2°C° 0 mm 3 mps 744 mmHg 56%
    10:00 +4°C° 0 mm 3 mps 743 mmHg 50%
    11:00 +5°C° 0 mm 3 mps 743 mmHg 45%
    12:00 +5°C° 0 mm 3 mps 743 mmHg 45%
    13:00 +7°C° 0 mm 3 mps 743 mmHg 44%
    14:00 +7°C° 0 mm 3 mps 742 mmHg 44%
    15:00 +5°C° 0 mm 3 mps 742 mmHg 49%
    16:00 +6°C° 0 mm 2 mps 742 mmHg 53%
    17:00 +6°C° 0 mm 1 mps 742 mmHg 58%
    18:00 +4°C° 0 mm 2 mps 742 mmHg 62%
    19:00 +3°C° 0 mm 2 mps 742 mmHg 66%
    20:00 +1°C° 0 mm 2 mps 742 mmHg 70%
    21:00 +1°C° 0 mm 2 mps 741 mmHg 74%
    22:00 +1°C° 0 mm 2 mps 741 mmHg 77%
    23:00 -1°C° 0 mm 2 mps 741 mmHg 80%

    26 March, Tuesday

    Time Temperature Precipitation Wind Pressure Humidity
    00:00 -1°C° 0 mm 2 mps 741 mmHg 82%
    01:00 -1°C° 0 mm 2 mps 741 mmHg 85%
    02:00 -1°C° 0 mm 2 mps 740 mmHg 87%
    03:00 -1°C° 0.2 mm 2 mps 740 mmHg 88%
    04:00 -1°C° 0.2 mm 2 mps 740 mmHg 89%
    05:00 +1°C° 0.2 mm 2 mps 740 mmHg 89%
    06:00 0°C° 0.3 mm 3 mps 740 mmHg 87%
    07:00 0°C° 0.3 mm 3 mps 740 mmHg 85%
    08:00 -1°C° 0.3 mm 4 mps 740 mmHg 83%
    09:00 -1°C° 0.3 mm 4 mps 740 mmHg 80%
    10:00 -1°C° 0.3 mm 4 mps 741 mmHg 77%
    11:00 -1°C° 0.3 mm 5 mps 741 mmHg 74%
    12:00 -1°C° 0.2 mm 5 mps 741 mmHg 69%
    13:00 0°C° 0.2 mm 5 mps 741 mmHg 64%
    14:00 0°C° 0.2 mm 5 mps 742 mmHg 58%
    15:00 0°C° 0.2 mm 4 mps 742 mmHg 61%
    16:00 -1°C° 0.2 mm 4 mps 742 mmHg 64%
    17:00 -1°C° 0.2 mm 4 mps 742 mmHg 67%
    18:00 -1°C° 0 mm 3 mps 743 mmHg 69%
    19:00 -4°C° 0 mm 3 mps 743 mmHg 72%
    20:00 -5°C° 0 mm 3 mps 744 mmHg 75%
    21:00 -5°C° 0 mm 3 mps 744 mmHg 75%
    22:00 -5°C° 0 mm 3 mps 744 mmHg 75%
    23:00 -5°C° 0 mm 4 mps 745 mmHg 74%

    27 March, Wednesday

    Time Temperature Precipitation Wind Pressure Humidity
    00:00 -7°C° 0 mm 4 mps 745 mmHg 75%
    01:00 -7°C° 0 mm 4 mps 746 mmHg 76%
    02:00 -7°C° 0 mm 5 mps 746 mmHg 77%
    03:00 -7°C° 0 mm 5 mps 746 mmHg 76%
    04:00 -7°C° 0 mm 5 mps 747 mmHg 75%
    05:00 -6°C° 0 mm 5 mps 747 mmHg 74%
    06:00 -6°C° 0 mm 5 mps 748 mmHg 72%
    07:00 -6°C° 0 mm 5 mps 748 mmHg 71%
    08:00 -5°C° 0 mm 5 mps 749 mmHg 70%
    09:00 -4°C° 0 mm 5 mps 749 mmHg 65%
    10:00 -4°C° 0 mm 5 mps 750 mmHg 61%
    11:00 -2°C° 0 mm 5 mps 751 mmHg 56%
    12:00 -1°C° 0 mm 5 mps 751 mmHg 54%
    13:00 0°C° 0 mm 5 mps 751 mmHg 51%
    14:00 +1°C° 0 mm 5 mps 751 mmHg 48%
    15:00 0°C° 0 mm 4 mps 752 mmHg 50%
    16:00 0°C° 0 mm 4 mps 752 mmHg 51%
    17:00 +1°C° 0 mm 3 mps 752 mmHg 53%
    18:00 -1°C° 0 mm 3 mps 753 mmHg 58%
    19:00 -2°C° 0 mm 2 mps 753 mmHg 64%
    20:00 -3°C° 0 mm 2 mps 753 mmHg 70%
    21:00 -3°C° 0 mm 2 mps 754 mmHg 69%
    22:00 -3°C° 0 mm 2 mps 754 mmHg 69%
    23:00 -3°C° 0 mm 2 mps 754 mmHg 69%

    28 March, Thursday

    Time Temperature Precipitation Wind Pressure Humidity
    00:00 -3°C° 0 mm 2 mps 754 mmHg 68%
    01:00 -2°C° 0 mm 3 mps 754 mmHg 68%
    02:00 -1°C° 0 mm 3 mps 754 mmHg 68%
    03:00 -1°C° 0 mm 3 mps 754 mmHg 70%
    04:00 -1°C° 0 mm 3 mps 754 mmHg 73%
    05:00 -1°C° 0 mm 3 mps 754 mmHg 75%
    06:00 -1°C° 0 mm 3 mps 754 mmHg 75%
    07:00 0°C° 0 mm 3 mps 754 mmHg 75%
    08:00 0°C° 0 mm 3 mps 754 mmHg 75%
    09:00 +1°C° 0 mm 3 mps 754 mmHg 74%
    10:00 +2°C° 0 mm 3 mps 754 mmHg 74%
    11:00 +3°C° 0 mm 3 mps 754 mmHg 73%
    12:00 +3°C° 0 mm 4 mps 753 mmHg 73%
    13:00 +3°C° 0 mm 4 mps 753 mmHg 73%
    14:00 +4°C° 0 mm 4 mps 753 mmHg 73%
    15:00 +4°C° 0 mm 4 mps 752 mmHg 74%
    16:00 +4°C° 0 mm 4 mps 752 mmHg 74%
    17:00 +4°C° 0 mm 4 mps 752 mmHg 74%
    18:00 +3°C° 0 mm 4 mps 751 mmHg 76%
    19:00 +3°C° 0 mm 4 mps 751 mmHg 79%
    20:00 +1°C° 0 mm 4 mps 751 mmHg 81%
    21:00 +1°C° 0 mm 4 mps 751 mmHg 82%
    22:00 +1°C° 0 mm 4 mps 751 mmHg 84%
    23:00 +1°C° 0 mm 4 mps 751 mmHg 85%
    Show more